Location: *
(46.1006°N, 1.8394°E)
Time: 06:46:06
(UTC+00:00)

SL-8 R/B - Pass Details

Date: 20 September 2019
Orbit: 657 x 667 km, 48.4° (Epoch: 20 October)

Event Time Altitude Azimuth Distance (km) Brightness Sun altitude
Rises 18:18:31 0° 254° (WSW) 2,977 8.5 -4.9°
Reaches altitude 10° 18:20:51 10° 255° (WSW) 2,068 7.6 -5.3°
Maximum altitude 18:25:38 84° 344° (NNW) 668 3.8 -6.1°
Drops below altitude 10° 18:30:27 10° 73° (ENE) 2,079 5.7 -6.9°
Enters shadow 18:31:18 - 73° (ENE) 2,406 6.0 -7.1°
